WA9NNN-10 Weather Reports


Display with metric or nautical units.
time (UTC)temp
F
wind
direction
speed
MPH
gust
MPH
rain 1hr
in
rain 24hr
in
rain mn
in
humidity
%
barometer
mb
20260904161832 80 63 10.0 8.0 0.00 0.00 0.00 77 1016.8
20260904161331 79 77 6.0 8.0 0.00 0.00 0.00 77 1017.0
20260904160832 79 89 8.0 9.0 0.00 0.00 0.00 78 1017.1
20260904160331 79 70 7.0 8.0 0.00 0.00 0.00 77 1017.0
20260904155831 80 85 13.0 7.0 0.00 0.00 0.00 77 1017.2
20260904155331 80 66 5.0 8.0 0.00 0.00 0.00 76 1017.1
20260904154831 80 359 4.0 7.0 0.00 0.00 0.00 76 1017.0
20260904154331 80 63 10.0 8.0 0.00 0.00 0.00 76 1016.9
20260904153832 80 84 4.0 8.0 0.00 0.00 0.00 75 1016.7
20260904153331 81 55 5.0 8.0 0.00 0.00 0.00 75 1016.7
20260904152831 81 49 9.0 7.0 0.00 0.00 0.00 73 1016.5
20260904152331 82 76 5.0 7.0 0.00 0.00 0.00 73 1016.4
20260904151832 82 56 8.0 5.0 0.00 0.00 0.00 73 1016.1
20260904151331 82 50 5.0 6.0 0.00 0.00 0.00 74 1015.8
20260904150831 82 82 4.0 7.0 0.00 0.00 0.00 75 1015.7
20260904150331 81 80 7.0 6.0 0.00 0.00 0.00 75 1015.6
20260904145831 82 53 12.0 5.0 0.00 0.00 0.00 76 1015.6
20260904145331 82 68 6.0 4.0 0.00 0.00 0.00 78 1015.6
20260904144831 81 74 6.0 4.0 0.00 0.00 0.00 80 1015.5
20260904144331 81 75 2.0 5.0 0.00 0.00 0.00 80 1015.5
20260904143831 81 77 5.0 5.0 0.00 0.00 0.00 81 1015.4
20260904143331 80 82 6.0 6.0 0.00 0.00 0.00 82 1015.4
20260904142831 80 51 2.0 6.0 0.00 0.00 0.00 82 1015.4
20260904142331 80 94 1.0 6.0 0.00 0.00 0.00 83 1015.4
20260904141831 80 70 6.0 5.0 0.00 0.00 0.00 83 1015.4
20260904141331 80 78 6.0 4.0 0.00 0.00 0.00 83 1015.4
20260904140832 80 79 4.0 5.0 0.00 0.00 0.00 83 1015.4
20260904140330 80 5 3.0 5.0 0.00 0.00 0.00 83 1015.3
20260904135831 80 69 8.0 6.0 0.00 0.00 0.00 82 1015.3
20260904135330 80 359 3.0 5.0 0.00 0.00 0.00 82 1015.2
20260904134831 81 44 6.0 5.0 0.00 0.00 0.00 83 1015.1
20260904134331 80 77 4.0 5.0 0.00 0.00 0.00 83 1015.1
20260904133831 80 18 2.0 5.0 0.00 0.00 0.00 83 1015.0
20260904133331 80 71 9.0 5.0 0.00 0.00 0.00 83 1015.1
20260904132831 80 65 5.0 4.0 0.00 0.00 0.00 84 1015.1
20260904132331 80 41 3.0 3.0 0.00 0.00 0.00 84 1014.9
20260904131831 80 55 5.0 3.0 0.00 0.00 0.00 85 1014.7
20260904131330 79 51 2.0 2.0 0.00 0.00 0.00 85 1014.6
20260904130831 79 60 2.0 3.0 0.00 0.00 0.00 85 1014.6
20260904130331 79 72 3.0 3.0 0.00 0.00 0.00 85 1014.6
20260904125832 79 61 2.0 3.0 0.00 0.00 0.00 85 1014.5
20260904125330 79 57 7.0 3.0 0.00 0.00 0.00 85 1014.3
20260904124831 79 65 3.0 5.0 0.00 0.00 0.00 85 1014.3
20260904124331 79 40 2.0 4.0 0.00 0.00 0.00 84 1014.3
20260904123831 79 77 5.0 4.0 0.00 0.00 0.00 84 1014.2
20260904123330 80 49 3.0 3.0 0.00 0.00 0.00 83 1014.3
20260904122832 80 79 6.0 3.0 0.00 0.00 0.00 82 1014.2
20260904122331 80 98 3.0 2.0 0.00 0.00 0.00 82 1014.0
20260904121832 80 338 3.0 2.0 0.00 0.00 0.00 81 1013.7
20260904121332 80 1 3.0 1.0 0.00 0.00 0.00 81 1013.7
20260904120831 80 0 0.0 0.0 0.00 0.00 0.00 80 1013.7
20260904120331 80 0 0.0 1.0 0.00 0.00 0.00 80 1013.5
20260904115831 80 0 0.0 1.0 0.00 0.00 0.00 80 1013.4
20260904115331 80 73 2.0 1.0 0.00 0.00 0.00 80 1013.4
20260904114831 80 66 2.0 1.0 0.00 0.00 0.00 80 1013.4
20260904114330 80 335 2.0 0.0 0.00 0.00 0.00 79 1013.1
20260904113831 79 0 0.0 0.0 0.00 0.00 0.00 79 1012.9
20260904113330 80 0 0.0 0.0 0.00 0.00 0.00 79 1012.9
20260904112831 80 0 0.0 0.0 0.00 0.00 0.00 79 1012.8
20260904112330 80 227 1.0 0.0 0.00 0.00 0.00 79 1012.7
20260904111831 80 0 0.0 0.0 0.00 0.00 0.00 79 1012.6
20260904111330 80 0 0.0 0.0 0.00 0.00 0.00 79 1012.6
20260904110831 80 0 0.0 0.0 0.00 0.00 0.00 78 1012.6
20260904110330 80 0 0.0 0.0 0.00 0.00 0.00 79 1012.5
20260904105831 80 0 0.0 0.0 0.00 0.00 0.00 78 1012.5
20260904105331 80 227 1.0 0.0 0.00 0.00 0.00 79 1012.5
20260904104831 80 0 0.0 0.0 0.00 0.00 0.00 79 1012.5
20260904104331 80 0 0.0 1.0 0.00 0.00 0.00 79 1012.4
20260904103831 80 0 0.0 1.0 0.00 0.00 0.00 79 1012.4
20260904103331 80 234 1.0 2.0 0.00 0.00 0.00 79 1012.3
20260904102833 80 206 1.0 2.0 0.00 0.00 0.00 79 1012.2
20260904102330 80 212 3.0 2.0 0.00 0.00 0.00 79 1012.2
20260904101831 80 195 1.0 2.0 0.00 0.00 0.00 80 1012.2
20260904101331 80 0 0.0 2.0 0.00 0.00 0.00 80 1012.2
20260904100831 80 224 2.0 1.0 0.00 0.00 0.00 80 1012.1
20260904100331 80 221 2.0 1.0 0.00 0.00 0.00 80 1012.3
20260904095830 80 216 1.0 2.0 0.00 0.00 0.00 80 1012.2
20260904095330 80 218 2.0 2.0 0.00 0.00 0.00 81 1012.2
20260904094831 80 181 2.0 2.0 0.00 0.00 0.00 81 1012.2
20260904094330 80 198 3.0 2.0 0.00 0.00 0.00 81 1012.2
20260904093830 80 217 1.0 3.0 0.00 0.00 0.00 81 1012.2
20260904093330 80 178 3.0 3.0 0.00 0.00 0.00 81 1012.1
20260904092832 80 219 1.0 3.0 0.00 0.00 0.00 82 1012.1
20260904092330 80 176 5.0 3.0 0.00 0.00 0.00 82 1012.2
20260904091831 80 187 4.0 3.0 0.00 0.00 0.00 82 1012.3
20260904091331 80 200 2.0 3.0 0.00 0.00 0.00 82 1012.2
20260904090831 81 203 3.0 3.0 0.00 0.00 0.00 82 1012.2
20260904090330 80 200 3.0 3.0 0.00 0.00 0.00 83 1012.2
20260904085830 80 222 3.0 3.0 0.00 0.00 0.00 83 1012.4
20260904085330 80 195 2.0 3.0 0.00 0.00 0.00 83 1012.4
20260904084831 80 226 2.0 2.0 0.00 0.00 0.00 83 1012.5
20260904084330 80 206 3.0 1.0 0.00 0.00 0.00 83 1012.7
20260904083831 80 212 2.0 0.0 0.00 0.00 0.00 83 1012.8
20260904083330 80 0 0.0 0.0 0.00 0.00 0.00 83 1013.0
20260904082830 80 0 0.0 0.0 0.00 0.00 0.00 83 1013.1
20260904082330 80 212 1.0 0.0 0.00 0.00 0.00 84 1013.0
20260904081831 80 212 1.0 0.0 0.00 0.00 0.00 84 1012.8
20260904081330 80 0 0.0 0.0 0.00 0.00 0.00 84 1012.8
20260904080831 80 0 0.0 1.0 0.00 0.00 0.00 84 1012.8
20260904080330 80 212 1.0 1.0 0.00 0.00 0.00 84 1012.8
20260904075831 80 188 1.0 1.0 0.00 0.00 0.00 84 1012.6
20260904075330 80 0 0.0 0.0 0.00 0.00 0.00 84 1012.7
20260904074330 80 0 0.0 0.0 0.00 0.00 0.00 84 1012.6
20260904073331 80 0 0.0 0.0 0.00 0.00 0.00 84 1012.4
20260904072831 80 0 0.0 0.0 0.00 0.00 0.00 84 1012.3
20260904072330 80 0 0.0 0.0 0.00 0.00 0.00 84 1012.2
20260904071830 80 0 0.0 0.0 0.00 0.00 0.00 84 1012.3
20260904071330 80 0 0.0 0.0 0.00 0.00 0.00 84 1012.2
20260904070831 80 0 0.0 0.0 0.00 0.00 0.00 84 1012.2
20260904070331 80 0 0.0 1.0 0.00 0.00 0.00 84 1012.2
20260904065831 80 0 0.0 1.0 0.00 0.00 0.00 84 1012.2
20260904065330 80 0 0.0 0.0 0.00 0.00 0.00 84 1012.2
20260904064830 80 0 0.0 0.0 0.00 0.00 0.00 84 1012.3
20260904064330 80 0 0.0 0.0 0.00 0.00 0.00 83 1012.4
20260904063831 80 0 0.0 0.0 0.00 0.00 0.00 83 1012.6
20260904063330 80 0 0.0 0.0 0.00 0.00 0.00 83 1012.6
20260904062831 80 0 0.0 0.0 0.00 0.00 0.00 82 1012.8
20260904062330 80 0 0.0 0.0 0.00 0.00 0.00 82 1013.0
20260904061832 80 0 0.0 0.0 0.00 0.00 0.00 82 1013.1
20260904061330 80 0 0.0 0.0 0.00 0.00 0.00 82 1013.2
20260904060830 80 0 0.0 0.0 0.00 0.00 0.00 82 1013.3
20260904060330 80 0 0.0 0.0 0.00 0.00 0.00 82 1013.4
20260904055832 80 0 0.0 0.0 0.00 0.00 0.00 82 1013.5
20260904055331 80 0 0.0 0.0 0.00 0.00 0.00 82 1013.6
20260904054830 80 359 2.0 0.0 0.00 0.00 0.00 82 1013.6
20260904054330 80 0 0.0 0.0 0.00 0.00 0.00 82 1013.6
20260904053830 81 0 0.0 0.0 0.00 0.00 0.00 82 1013.6
20260904053331 81 0 0.0 0.0 0.00 0.00 0.00 82 1013.7
20260904052830 81 0 0.0 1.0 0.00 0.00 0.00 82 1013.7
20260904052331 81 0 0.0 1.0 0.00 0.00 0.00 82 1013.7
20260904051831 80 359 3.0 1.0 0.00 0.00 0.00 83 1013.6
20260904051331 80 0 0.0 0.0 0.00 0.00 0.00 83 1013.5
20260904050830 80 0 0.0 0.0 0.00 0.00 0.00 82 1013.3
20260904050330 80 0 0.0 0.0 0.00 0.00 0.00 82 1013.2
20260904045830 80 0 0.0 0.0 0.00 0.00 0.00 82 1013.3
20260904045330 80 0 0.0 0.0 0.00 0.00 0.00 82 1013.3
20260904044830 80 0 0.0 0.0 0.00 0.00 0.00 81 1013.3
20260904044330 80 0 0.0 0.0 0.00 0.00 0.00 81 1013.3
20260904043830 80 0 0.0 0.0 0.00 0.00 0.00 81 1013.3
20260904043331 80 0 0.0 0.0 0.00 0.00 0.00 81 1013.3
20260904042830 80 0 0.0 0.0 0.00 0.00 0.00 81 1013.4
20260904042330 80 0 0.0 0.0 0.00 0.00 0.00 81 1013.4
20260904041830 81 0 0.0 0.0 0.00 0.00 0.00 80 1013.5
20260904041330 81 0 0.0 0.0 0.00 0.00 0.00 80 1013.6
20260904040830 81 0 0.0 0.0 0.00 0.00 0.00 80 1013.6
20260904040330 81 0 0.0 0.0 0.00 0.00 0.00 80 1013.6
20260904035830 81 0 0.0 0.0 0.00 0.00 0.00 79 1013.6
20260904035330 81 0 0.0 0.0 0.00 0.00 0.00 79 1013.6
20260904034830 81 0 0.0 0.0 0.00 0.00 0.00 79 1013.6
20260904034331 81 0 0.0 0.0 0.00 0.00 0.00 79 1013.7
20260904033832 81 0 0.0 0.0 0.00 0.00 0.00 79 1013.8
20260904033331 81 0 0.0 1.0 0.00 0.00 0.00 79 1013.8
20260904032832 81 63 2.0 1.0 0.00 0.00 0.00 79 1013.8
20260904032331 81 0 0.0 0.0 0.00 0.00 0.00 79 1014.0
20260904031831 81 0 0.0 1.0 0.00 0.00 0.00 78 1014.0
20260904031331 81 0 0.0 1.0 0.00 0.00 0.00 78 1014.0
20260904030832 81 63 1.0 2.0 0.00 0.00 0.00 78 1013.9
20260904030331 81 61 2.0 2.0 0.00 0.00 0.00 77 1013.9
20260904025831 82 56 3.0 1.0 0.00 0.00 0.00 77 1013.9
20260904025331 82 35 1.0 0.0 0.00 0.00 0.00 76 1014.0
20260904024831 82 0 0.0 1.0 0.00 0.00 0.00 76 1014.0
20260904024331 82 0 0.0 1.0 0.00 0.00 0.00 75 1014.0
20260904023831 82 87 2.0 1.0 0.00 0.00 0.00 75 1014.0
20260904023331 82 87 2.0 0.0 0.00 0.00 0.00 74 1014.0
20260904022903 82 0 0.0 1.0 0.00 0.00 0.00 74 1013.9
20260904022831 82 0 0.0 1.0 0.00 0.00 0.00 74 1013.9
20260904022331 82 87 2.0 1.0 0.00 0.00 0.00 74 1013.6
20260904021831 82 0 0.0 2.0 0.00 0.00 0.00 73 1013.4
20260904021331 82 58 4.0 1.0 0.00 0.00 0.00 73 1013.6
20260904020831 82 0 0.0 0.0 0.00 0.00 0.00 73 1013.6
20260904020331 82 0 0.0 0.0 0.00 0.00 0.00 73 1013.5
20260904015831 82 0 0.0 0.0 0.00 0.00 0.00 73 1013.4
20260904015330 82 0 0.0 0.0 0.00 0.00 0.00 73 1013.5
20260904014831 82 0 0.0 0.0 0.00 0.00 0.00 74 1013.4
20260904014331 82 0 0.0 0.0 0.00 0.00 0.00 73 1013.5
20260904013831 82 0 0.0 1.0 0.00 0.00 0.00 73 1013.4
20260904013331 82 0 0.0 0.0 0.00 0.00 0.00 73 1013.4
20260904012831 82 0 0.0 0.0 0.00 0.00 0.00 73 1013.3
20260904012331 82 0 0.0 0.0 0.00 0.00 0.00 72 1013.1
20260904011831 82 0 0.0 0.0 0.00 0.00 0.00 72 1013.1
20260904011331 82 0 0.0 0.0 0.00 0.00 0.00 72 1012.9
20260904010831 82 0 0.0 0.0 0.00 0.00 0.00 72 1012.8
20260904010331 82 0 0.0 0.0 0.00 0.00 0.00 72 1012.7
20260904005831 82 0 0.0 0.0 0.00 0.00 0.00 72 1012.5
20260904005331 82 104 1.0 1.0 0.00 0.00 0.00 72 1012.4
20260904004831 82 173 1.0 1.0 0.00 0.00 0.00 72 1012.3
20260904004331 82 173 2.0 2.0 0.00 0.00 0.00 72 1012.3
20260904003831 82 193 2.0 2.0 0.00 0.00 0.00 71 1012.3
20260904003330 82 185 3.0 2.0 0.00 0.00 0.00 71 1012.3
20260904002831 82 176 3.0 1.0 0.00 0.00 0.00 71 1012.4
20260904002331 82 179 1.0 1.0 0.00 0.00 0.00 71 1012.4
20260904001831 82 180 3.0 1.0 0.00 0.00 0.00 71 1012.5
20260904001331 82 0 0.0 2.0 0.00 0.00 0.00 71 1012.6
20260904000831 82 188 2.0 2.0 0.00 0.00 0.00 71 1012.5
20260904000333 82 198 2.0 2.0 0.00 0.00 0.00 71 1012.5
20260903235832 82 184 1.0 2.0 0.00 0.00 0.00 72 1012.4
20260903235331 82 0 0.0 1.0 0.00 0.00 0.00 72 1012.4
20260903234831 82 194 2.0 1.0 0.00 0.00 0.00 73 1012.4
20260903234331 82 131 1.0 1.0 0.00 0.00 0.00 73 1012.4
20260903233831 82 0 0.0 1.0 0.00 0.00 0.00 73 1012.4
20260903233331 82 63 3.0 2.0 0.00 0.00 0.00 73 1012.4
20260903232831 82 70 1.0 2.0 0.00 0.00 0.00 73 1012.5
20260903232330 82 49 5.0 2.0 0.00 0.00 0.00 73 1012.6
20260903231831 82 0 0.0 2.0 0.00 0.00 0.00 73 1012.6
20260903231331 82 84 5.0 2.0 0.00 0.00 0.00 73 1012.7
20260903230831 82 124 3.0 2.0 0.00 0.00 0.00 73 1012.8
20260903230331 82 71 2.0 3.0 0.00 0.00 0.00 72 1012.9
20260903225831 82 139 2.0 3.0 0.00 0.00 0.00 72 1012.9
20260903225331 82 186 3.0 3.0 0.00 0.00 0.00 72 1012.9
20260903224831 83 55 2.0 4.0 0.00 0.00 0.00 72 1012.9
20260903224331 83 68 6.0 3.0 0.00 0.00 0.00 72 1013.0
20260903223831 83 87 5.0 3.0 0.00 0.00 0.00 72 1013.1
20260903223331 83 72 1.0 3.0 0.00 0.00 0.00 71 1013.0
20260903222831 83 132 4.0 4.0 0.00 0.00 0.00 70 1013.2
20260903222331 84 97 4.0 4.0 0.00 0.00 0.00 70 1013.3
20260903221831 84 51 6.0 4.0 0.00 0.00 0.00 69 1013.4
20260903221330 84 87 1.0 4.0 0.00 0.00 0.00 69 1013.4
20260903220832 84 115 2.0 4.0 0.00 0.00 0.00 68 1013.4
20260903220331 84 70 4.0 3.0 0.00 0.00 0.00 68 1013.4
20260903215831 84 0 0.0 4.0 0.00 0.00 0.00 68 1013.3
20260903215330 84 70 2.0 3.0 0.00 0.00 0.00 67 1013.2
20260903214831 84 73 2.0 3.0 0.00 0.00 0.00 66 1013.2
20260903214330 84 54 7.0 3.0 0.00 0.00 0.00 66 1013.2
20260903213831 84 157 2.0 4.0 0.00 0.00 0.00 65 1013.3
20260903213330 84 83 2.0 4.0 0.00 0.00 0.00 65 1013.1
20260903212831 85 62 5.0 4.0 0.00 0.00 0.00 65 1013.1
20260903212330 85 56 6.0 3.0 0.00 0.00 0.00 64 1013.1
20260903211831 85 49 9.0 3.0 0.00 0.00 0.00 64 1013.2
20260903211330 85 73 4.0 3.0 0.00 0.00 0.00 64 1013.3
20260903210831 85 75 3.0 4.0 0.00 0.00 0.00 63 1013.2
20260903210330 85 89 4.0 3.0 0.00 0.00 0.00 63 1013.3
20260903205831 85 56 6.0 3.0 0.00 0.00 0.00 64 1013.2
20260903205331 85 122 3.0 4.0 0.00 0.00 0.00 63 1013.4
20260903204831 86 54 10.0 4.0 0.00 0.00 0.00 62 1013.7
20260903204330 86 69 2.0 5.0 0.00 0.00 0.00 61 1013.5
20260903203831 87 72 5.0 6.0 0.00 0.00 0.00 59 1013.6
20260903203331 88 32 4.0 6.0 0.00 0.00 0.00 57 1013.7
20260903202831 89 58 3.0 6.0 0.00 0.00 0.00 55 1013.5
20260903202330 91 60 11.0 5.0 0.00 0.00 0.00 53 1013.6
20260903201831 93 54 2.0 4.0 0.00 0.00 0.00 52 1013.5
20260903201331 94 42 4.0 3.0 0.00 0.00 0.00 51 1013.2
20260903200831 94 60 5.0 3.0 0.00 0.00 0.00 50 1013.2
20260903200331 95 113 3.0 3.0 0.00 0.00 0.00 49 1013.3
20260903195832 95 134 2.0 2.0 0.00 0.00 0.00 49 1013.3
20260903195330 95 75 1.0 2.0 0.00 0.00 0.00 50 1013.3
20260903194831 95 0 0.0 2.0 0.00 0.00 0.00 51 1013.5
20260903194330 94 148 2.0 1.0 0.00 0.00 0.00 52 1013.5
20260903193831 93 67 3.0 2.0 0.00 0.00 0.00 53 1013.4
20260903193330 92 91 2.0 3.0 0.00 0.00 0.00 54 1013.6
20260903192831 92 46 5.0 3.0 0.00 0.00 0.00 52 1013.6
20260903192330 92 56 1.0 3.0 0.00 0.00 0.00 54 1013.6
20260903191831 92 68 3.0 2.0 0.00 0.00 0.00 53 1013.6
20260903191331 92 0 0.0 1.0 0.00 0.00 0.00 54 1013.7
20260903190831 91 0 0.0 1.0 0.00 0.00 0.00 55 1013.8
20260903190330 90 0 0.0 1.0 0.00 0.00 0.00 59 1013.9
20260903185831 88 130 1.0 2.0 0.00 0.00 0.00 60 1014.0
20260903185330 88 0 0.0 2.0 0.00 0.00 0.00 60 1014.0
20260903184831 88 359 3.0 3.0 0.00 0.00 0.00 60 1014.0
20260903184331 88 351 4.0 3.0 0.00 0.00 0.00 60 1014.1
20260903183832 87 91 3.0 3.0 0.00 0.00 0.00 62 1014.2
20260903183330 87 56 7.0 3.0 0.00 0.00 0.00 63 1014.2
20260903182832 86 349 2.0 3.0 0.00 0.00 0.00 64 1014.4
20260903182330 85 282 2.0 4.0 0.00 0.00 0.00 66 1014.4
20260903181831 84 7 3.0 4.0 0.00 0.00 0.00 66 1014.4
20260903181330 84 359 6.0 3.0 0.00 0.00 0.00 67 1014.6
20260903180831 84 314 3.0 4.0 0.00 0.00 0.00 68 1014.5
20260903180330 83 329 4.0 5.0 0.00 0.00 0.00 69 1014.7
20260903175831 83 331 4.0 5.0 0.00 0.00 0.00 69 1014.8
20260903175330 83 1 3.0 6.0 0.00 0.00 0.00 70 1014.9
20260903174831 82 329 4.0 6.0 0.00 0.00 0.00 71 1015.0
20260903174330 82 338 4.0 5.0 0.00 0.00 0.00 71 1015.0
20260903173831 82 49 5.0 5.0 0.00 0.00 0.00 72 1015.2
20260903172330 81 320 3.0 5.0 0.00 0.00 0.00 74 1015.3
20260903171331 82 318 8.0 7.0 0.00 0.00 0.00 75 1015.5
20260903170332 82 353 8.0 6.0 0.00 0.00 0.00 76 1015.3
20260903165330 83 271 3.0 7.0 0.00 0.00 0.00 76 1015.0
20260903164831 84 330 6.0 7.0 0.00 0.00 0.00 75 1014.9
20260903164330 84 285 5.0 7.0 0.00 0.00 0.00 73 1015.0
20260903163831 85 356 13.0 7.0 0.00 0.00 0.00 71 1015.1
20260903163330 85 276 6.0 7.0 0.00 0.00 0.00 70 1015.0
20260903162831 86 299 9.0 8.0 0.00 0.00 0.00 69 1015.1
20260903162331 86 347 6.0 8.0 0.00 0.00 0.00 69 1014.9